Tracking 30009 objects as of 7-Dec-2024
HD Live streaming from Space Station
objects crossing your sky now

STARLINK-30404

Track STARLINK-30404 now!
10-day predictions
STARLINK-30404 is classified as:


NORAD ID: 57853
Int'l Code: 2023-141P
Perigee: 469.9 km
Apogee: 470.8 km
Inclination: 53.2 °
Period: 93.9 minutes
Semi major axis: 6841 km
RCS: Unknown
Launch date: September 12, 2023
Source: United States (US)
Launch site: AIR FORCE WESTERN TEST RANGE (AFWTR)
Your satellite tracking list
Your tracking list is empty




NASA's NSSDC Master Catalog

Two Line Element Set (TLE):
1 57853U 23141P   24342.04619280 -.00002020  00000-0 -48981-4 0  9994
2 57853  53.1603 249.6247 0000650 101.1176 258.9900 15.34219210 70266
Source of the keplerian elements: AFSPC